TimePDT,TemperatureF,Dew PointF,Humidity,Sea Level PressureIn,VisibilityMPH,Wind Direction,Wind SpeedMPH,Gust SpeedMPH,PrecipitationIn,Events,Conditions,WindDirDegrees,DateUTC
12:15 AM,26.6,17.6,69,30.19,10.0,NNW,13.8,-,N/A,,Clear,340,2014-03-18 07:15:00
12:35 AM,26.6,17.6,69,30.18,10.0,North,13.8,-,N/A,,Clear,350,2014-03-18 07:35:00
12:55 AM,26.6,17.6,69,30.19,10.0,North,10.4,-,N/A,,Clear,350,2014-03-18 07:55:00
1:15 AM,24.8,17.6,74,30.19,10.0,North,11.5,-,N/A,,Clear,350,2014-03-18 08:15:00
1:35 AM,24.8,17.6,74,30.18,10.0,North,9.2,-,N/A,,Clear,350,2014-03-18 08:35:00
1:55 AM,24.8,17.6,74,30.18,10.0,North,9.2,-,N/A,,Clear,350,2014-03-18 08:55:00
2:15 AM,24.8,17.6,74,30.18,10.0,North,12.7,-,N/A,,Clear,360,2014-03-18 09:15:00
2:35 AM,24.8,17.6,74,30.18,10.0,North,12.7,-,N/A,,Clear,350,2014-03-18 09:35:00
2:55 AM,24.8,19.4,80,30.18,10.0,North,10.4,16.1,N/A,,Clear,350,2014-03-18 09:55:00
3:15 AM,24.8,17.6,74,30.18,10.0,North,11.5,-,N/A,,Partly Cloudy,360,2014-03-18 10:15:00
3:35 AM,26.6,19.4,74,30.18,10.0,North,11.5,-,N/A,,Mostly Cloudy,360,2014-03-18 10:35:00
3:55 AM,24.8,19.4,80,30.18,10.0,North,10.4,-,N/A,,Mostly Cloudy,360,2014-03-18 10:55:00
4:15 AM,24.8,19.4,80,30.18,10.0,North,8.1,-,N/A,,Overcast,350,2014-03-18 11:15:00
4:35 AM,26.6,19.4,74,30.18,10.0,NNW,11.5,-,N/A,,Overcast,340,2014-03-18 11:35:00
4:55 AM,24.8,19.4,80,30.17,10.0,North,12.7,-,N/A,,Mostly Cloudy,350,2014-03-18 11:55:00
5:15 AM,24.8,19.4,80,30.17,10.0,North,10.4,-,N/A,,Mostly Cloudy,350,2014-03-18 12:15:00
5:35 AM,23.0,17.6,80,30.16,10.0,North,11.5,-,N/A,,Partly Cloudy,350,2014-03-18 12:35:00
5:55 AM,24.8,19.4,80,30.16,10.0,North,12.7,-,N/A,,Clear,360,2014-03-18 12:55:00
6:15 AM,24.8,17.6,74,30.17,10.0,North,11.5,-,N/A,,Clear,360,2014-03-18 13:15:00
6:35 AM,24.8,19.4,80,30.17,10.0,North,11.5,18.4,N/A,,Clear,360,2014-03-18 13:35:00
6:55 AM,24.8,19.4,80,30.17,10.0,North,12.7,-,N/A,,Mostly Cloudy,10,2014-03-18 13:55:00
7:15 AM,26.6,19.4,74,30.18,10.0,NNE,12.7,-,N/A,,Overcast,20,2014-03-18 14:15:00
7:35 AM,26.6,19.4,74,30.18,10.0,North,11.5,-,N/A,,Overcast,10,2014-03-18 14:35:00
7:55 AM,26.6,19.4,74,30.19,10.0,North,11.5,-,N/A,,Overcast,360,2014-03-18 14:55:00
8:15 AM,28.4,17.6,64,30.19,10.0,NNE,11.5,-,N/A,,Overcast,20,2014-03-18 15:15:00
8:35 AM,28.4,17.6,64,30.19,10.0,North,11.5,-,N/A,,Overcast,10,2014-03-18 15:35:00
8:55 AM,30.2,17.6,60,30.19,10.0,North,12.7,-,N/A,,Overcast,360,2014-03-18 15:55:00
9:15 AM,32.0,19.4,60,30.19,10.0,North,15.0,-,N/A,,Mostly Cloudy,360,2014-03-18 16:15:00
9:35 AM,33.8,19.4,56,30.18,10.0,NNE,12.7,-,N/A,,Partly Cloudy,30,2014-03-18 16:35:00
9:55 AM,33.8,17.6,52,30.18,10.0,NNE,10.4,-,N/A,,Clear,30,2014-03-18 16:55:00
10:15 AM,35.6,15.8,44,30.18,10.0,NNE,11.5,-,N/A,,Clear,30,2014-03-18 17:15:00
10:35 AM,35.6,15.8,44,30.19,10.0,NE,6.9,-,N/A,,Clear,40,2014-03-18 17:35:00
10:55 AM,35.6,17.6,48,30.19,10.0,NNE,6.9,-,N/A,,Clear,30,2014-03-18 17:55:00
11:15 AM,37.4,15.8,41,30.19,10.0,NE,10.4,-,N/A,,Clear,40,2014-03-18 18:15:00
11:35 AM,37.4,17.6,45,30.18,10.0,NE,9.2,16.1,N/A,,Clear,50,2014-03-18 18:35:00
11:55 AM,39.2,17.6,42,30.18,10.0,North,5.8,-,N/A,,Clear,10,2014-03-18 18:55:00
12:15 PM,39.2,17.6,42,30.17,10.0,NNW,4.6,-,N/A,,Clear,330,2014-03-18 19:15:00
12:35 PM,39.2,17.6,42,30.17,10.0,Calm,Calm,-,N/A,,Clear,0,2014-03-18 19:35:00
12:55 PM,41.0,15.8,36,30.17,10.0,NNE,8.1,-,N/A,,Clear,30,2014-03-18 19:55:00
1:15 PM,42.8,14.0,31,30.16,10.0,North,3.5,-,N/A,,Clear,350,2014-03-18 20:15:00
1:35 PM,42.8,17.6,36,30.15,10.0,North,6.9,-,N/A,,Clear,360,2014-03-18 20:35:00
1:55 PM,42.8,14.0,31,30.14,10.0,NE,3.5,-,N/A,,Clear,50,2014-03-18 20:55:00
2:15 PM,44.6,15.8,31,30.13,10.0,NNE,8.1,-,N/A,,Clear,20,2014-03-18 21:15:00
2:35 PM,46.4,15.8,29,30.13,10.0,North,5.8,-,N/A,,Clear,350,2014-03-18 21:35:00
2:55 PM,46.4,14.0,27,30.11,10.0,NNE,6.9,-,N/A,,Clear,20,2014-03-18 21:55:00
3:15 PM,46.4,14.0,27,30.11,10.0,North,3.5,-,N/A,,Clear,10,2014-03-18 22:15:00
3:35 PM,48.2,19.4,32,30.11,10.0,North,5.8,-,N/A,,Clear,10,2014-03-18 22:35:00
3:55 PM,46.4,12.2,25,30.11,10.0,ENE,8.1,-,N/A,,Clear,60,2014-03-18 22:55:00
4:15 PM,48.2,12.2,24,30.11,10.0,ESE,3.5,-,N/A,,Clear,110,2014-03-18 23:15:00
4:35 PM,48.2,12.2,24,30.10,10.0,ESE,9.2,-,N/A,,Clear,110,2014-03-18 23:35:00
4:55 PM,48.2,12.2,24,30.10,10.0,NE,8.1,-,N/A,,Clear,50,2014-03-18 23:55:00
5:15 PM,48.2,14.0,25,30.10,10.0,ENE,3.5,-,N/A,,Clear,70,2014-03-19 00:15:00
5:35 PM,48.2,14.0,25,30.10,10.0,NNE,8.1,-,N/A,,Clear,20,2014-03-19 00:35:00
5:55 PM,46.4,14.0,27,30.11,10.0,NNW,10.4,-,N/A,,Clear,340,2014-03-19 00:55:00
6:15 PM,46.4,12.2,25,30.11,10.0,North,11.5,-,N/A,,Clear,10,2014-03-19 01:15:00
6:35 PM,44.6,15.8,31,30.10,10.0,North,10.4,-,N/A,,Clear,10,2014-03-19 01:35:00
6:55 PM,42.8,15.8,34,30.10,10.0,North,10.4,-,N/A,,Clear,10,2014-03-19 01:55:00
7:15 PM,39.2,14.0,36,30.11,10.0,North,11.5,19.6,N/A,,Clear,10,2014-03-19 02:15:00
7:35 PM,37.4,14.0,38,30.11,10.0,North,12.7,-,N/A,,Clear,10,2014-03-19 02:35:00
7:55 PM,35.6,15.8,44,30.11,10.0,North,12.7,-,N/A,,Clear,360,2014-03-19 02:55:00
8:15 PM,35.6,14.0,41,30.12,10.0,NNW,10.4,-,N/A,,Clear,340,2014-03-19 03:15:00
8:35 PM,33.8,14.0,44,30.12,10.0,NNW,8.1,-,N/A,,Clear,340,2014-03-19 03:35:00
8:55 PM,30.2,14.0,51,30.12,10.0,NNW,10.4,-,N/A,,Clear,340,2014-03-19 03:55:00
9:15 PM,28.4,15.8,59,30.12,10.0,North,8.1,-,N/A,,Clear,360,2014-03-19 04:15:00
9:35 PM,28.4,15.8,59,30.12,10.0,NNW,8.1,-,N/A,,Clear,330,2014-03-19 04:35:00
9:55 PM,30.2,14.0,51,30.12,10.0,NNW,10.4,-,N/A,,Clear,340,2014-03-19 04:55:00
10:15 PM,28.4,14.0,55,30.13,10.0,NNW,9.2,-,N/A,,Clear,330,2014-03-19 05:15:00
10:35 PM,28.4,15.8,59,30.13,10.0,NNW,10.4,-,N/A,,Clear,330,2014-03-19 05:35:00
10:55 PM,26.6,15.8,64,30.13,10.0,NNW,10.4,-,N/A,,Clear,340,2014-03-19 05:55:00
11:15 PM,24.8,15.8,69,30.13,10.0,NNW,9.2,-,N/A,,Clear,330,2014-03-19 06:15:00
11:35 PM,24.8,15.8,69,30.13,10.0,NW,9.2,-,N/A,,Clear,320,2014-03-19 06:35:00
11:55 PM,24.8,15.8,69,30.13,10.0,NW,6.9,-,N/A,,Clear,320,2014-03-19 06:55:00